TimeCST,TemperatureF,Dew PointF,Humidity,Sea Level PressureIn,VisibilityMPH,Wind Direction,Wind SpeedMPH,Gust SpeedMPH,PrecipitationIn,Events,Conditions,WindDirDegrees,DateUTC
12:54 AM,35.1,32.0,89,29.58,3.0,NE,18.4,26.5,0.13,Rain,Rain,50,2013-02-26 06:54:00
1:19 AM,35.6,32.0,87,29.55,4.0,NE,17.3,31.1,0.07,Rain,Rain,50,2013-02-26 07:19:00
1:54 AM,35.1,32.0,89,29.53,3.0,NE,20.7,26.5,0.18,Rain,Rain,50,2013-02-26 07:54:00
1:56 AM,35.6,32.0,87,29.51,3.0,NE,20.7,27.6,0.01,Rain,Rain,50,2013-02-26 07:56:00
2:10 AM,35.6,32.0,87,29.48,3.0,NE,20.7,31.1,0.07,Rain,Heavy Rain,50,2013-02-26 08:10:00
2:22 AM,35.6,32.0,87,29.48,3.0,ENE,18.4,29.9,0.11,Rain,Rain,60,2013-02-26 08:22:00
2:31 AM,35.6,32.0,87,29.47,4.0,NE,20.7,28.8,0.12,Rain,Light Rain,50,2013-02-26 08:31:00
2:54 AM,35.1,32.0,89,29.46,4.0,NE,18.4,26.5,0.13,Rain,Light Rain,50,2013-02-26 08:54:00
3:54 AM,35.1,32.0,89,29.42,5.0,ENE,13.8,-,0.07,Rain,Light Rain,60,2013-02-26 09:54:00
4:54 AM,35.1,32.0,89,29.42,3.0,ENE,11.5,-,0.01,Rain,Light Rain,60,2013-02-26 10:54:00
5:06 AM,35.6,32.0,87,29.40,2.5,ENE,12.7,-,0.00,Rain,Light Rain,60,2013-02-26 11:06:00
5:17 AM,35.6,32.0,87,29.39,3.0,ENE,13.8,-,0.01,Rain,Light Rain,60,2013-02-26 11:17:00
5:54 AM,35.6,33.8,93,29.38,4.0,ENE,11.5,-,N/A,,Overcast,60,2013-02-26 11:54:00
6:54 AM,36.0,33.1,89,29.38,7.0,ENE,12.7,-,0.00,,Overcast,70,2013-02-26 12:54:00
7:54 AM,36.0,34.0,93,29.37,2.0,NE,12.7,-,N/A,,Overcast,50,2013-02-26 13:54:00
8:54 AM,37.0,35.1,93,29.37,2.0,NE,8.1,-,0.00,,Overcast,50,2013-02-26 14:54:00
9:01 AM,37.4,35.6,93,29.35,1.5,NE,6.9,-,N/A,,Overcast,50,2013-02-26 15:01:00
9:17 AM,37.4,35.6,93,29.36,2.0,NNE,8.1,-,N/A,,Overcast,30,2013-02-26 15:17:00
9:38 AM,37.4,35.6,93,29.36,3.0,NE,10.4,-,N/A,,Overcast,50,2013-02-26 15:38:00
9:54 AM,37.9,36.0,93,29.38,3.0,ENE,8.1,-,N/A,,Overcast,60,2013-02-26 15:54:00
10:32 AM,39.2,37.4,93,29.36,2.5,NE,10.4,-,N/A,,Overcast,50,2013-02-26 16:32:00
10:54 AM,39.0,37.0,93,29.38,2.5,NE,6.9,-,N/A,,Overcast,40,2013-02-26 16:54:00
11:12 AM,39.2,37.4,93,29.36,1.2,NNE,5.8,-,N/A,,Overcast,30,2013-02-26 17:12:00
11:49 AM,37.4,35.6,93,29.37,2.0,North,5.8,-,0.00,,Overcast,10,2013-02-26 17:49:00
11:54 AM,37.9,36.0,93,29.39,1.8,North,4.6,-,0.00,,Overcast,360,2013-02-26 17:54:00
12:54 PM,37.9,36.0,93,29.39,1.5,NNE,4.6,-,N/A,,Overcast,20,2013-02-26 18:54:00
1:05 PM,37.4,35.6,93,29.38,2.0,North,4.6,-,N/A,,Overcast,360,2013-02-26 19:05:00
1:54 PM,37.0,35.1,93,29.41,1.8,North,5.8,-,N/A,,Overcast,360,2013-02-26 19:54:00
2:54 PM,37.0,35.1,93,29.43,2.0,NW,5.8,-,N/A,,Overcast,320,2013-02-26 20:54:00
3:08 PM,37.4,35.6,93,29.42,1.8,North,5.8,-,N/A,,Overcast,350,2013-02-26 21:08:00
3:41 PM,35.6,33.8,93,29.45,2.0,WNW,6.9,-,N/A,,Overcast,300,2013-02-26 21:41:00
3:54 PM,36.0,34.0,93,29.47,1.5,NW,10.4,-,N/A,,Overcast,320,2013-02-26 21:54:00
4:54 PM,36.0,34.0,93,29.51,2.0,NW,9.2,-,N/A,,Overcast,310,2013-02-26 22:54:00
5:54 PM,35.1,33.1,92,29.55,2.0,WNW,8.1,-,N/A,,Overcast,300,2013-02-26 23:54:00
6:54 PM,34.0,32.0,92,29.59,3.0,NW,8.1,-,0.00,Rain,Light Rain,310,2013-02-27 00:54:00
7:54 PM,34.0,32.0,92,29.61,10.0,WNW,9.2,-,0.00,,Overcast,300,2013-02-27 01:54:00
8:54 PM,34.0,30.9,89,29.62,10.0,NW,9.2,-,N/A,,Overcast,310,2013-02-27 02:54:00
9:54 PM,34.0,30.9,89,29.66,10.0,WNW,10.4,-,N/A,,Overcast,290,2013-02-27 03:54:00
10:54 PM,34.0,30.0,85,29.69,10.0,West,10.4,-,N/A,,Overcast,280,2013-02-27 04:54:00
11:54 PM,34.0,30.9,89,29.70,7.0,West,9.2,-,N/A,,Overcast,270,2013-02-27 05:54:00